Weather in Gorodok

Russia / Krasnoyarsk Krai     53°55′24″N   91°48′07″E
temp.,
°C
wind,
m/s
gust,
m/s
humid.,
%
clouds,
%
prec.,
mm/h
press.,
hPa
HPBL,
m
18 may, tue
tue1801:00+9w118444 0.0 101310
04:00+9ssw2286100 0.0 101324
07:00+10sse238399 0.0 1011147
10:00+15s5870100 0.0 1007693
13:00+14sw61580100 4.2 1002832
16:00+20wsw111958100 1.7 9981895
19:00+11nw14257826 3.6 10021189
22:00+9nw5985100 0.0 1008849
19 may, wed
wed1901:00+9nnw2588100 0.1 1008320
04:00+7ne1193100 0.0 100625
07:00+9ese2287100 0.2 1004250
10:00+9e1388100 1.6 1000408
13:00+7nnw6990100 8.6 1001515
16:00+7nw6989100 6.2 1003830
19:00+9nnw4770100 6.3 1004998
22:00+7wnw3577100 0.1 1005152
20 may, thu
thu2001:00+6nw4877100 0.1 1005313
04:00+4nw4975100 0.0 1005336
07:00+4nw5873100 0.0 1006428
10:00+6nnw7859100 0.0 1006991
13:00+8n7851100 0.0 10061725
16:00+8nnw8944100 0.0 10071843
19:00+7nnw7948100 0.0 10091422
22:00+5nnw51060100 0.0 1012454
21 may, fri
fri2101:00+4nw61265100 0.0 1012720
04:00+3nw61171100 0.0 1014649
07:00+3nw71178100 0.0 1017963
10:00+2nw71195100 0.9 1019712
13:00+3nw71294100 2.3 1020655
16:00+8nnw786793 0.0 10201196
19:00+8nnw586763 0.0 10211108
22:00+5sw228093 0.0 102321
22 may, sat
sat2201:00+5sw3578100 0.0 1023114
04:00+4sw41183100 0.0 1022390
07:00+5sw51174100 0.0 1021626
10:00+4sw91487100 1.1 1020949
13:00+5sw91390100 2.3 1017938
16:00+6sw5881100 0.6 1017653
19:00+5sw4891100 2.3 1018342
22:00+6sw3786100 1.1 1019189